Location: Little Cypress
(30.1590°N, 93.7750°W)
Time: 02:24:31
(UTC-06:00)

Daily predictions for brighter satellites

Satellite Brightness Start Highest point End
(mag) Time Altitude Azimuth Time Altitude Azimuth Time Altitude Azimuth
CZ-3 R/B 4.5 01:01:31 10° W 02:29:36 53° SE 02:38:15 10° ESE
CZ-3 Stage 3 4.2 04:12:39 21° E 04:12:39 21° E 04:15:25 10° E
Atlas 2A Centaur Rocket 4.2 04:30:53 27° SE 04:30:53 27° SE 04:32:24 10° ESE
SL-16 R/B 2.7 05:01:28 47° SSW 05:01:28 47° SSW 05:05:33 10° S
BREEZE-M DEB (TANK) 4.3 04:52:18 28° NW 05:00:10 66° NNE 05:04:46 10° ESE
Cosmos 2346 Rocket 4.4 04:57:06 21° N 05:01:20 78° E 05:07:22 10° S
Cosmos 1538 Rocket 3.9 05:11:44 51° NNW 05:13:07 88° ENE 05:18:26 10° SSE
Cosmos 2221 2.8 05:09:43 10° S 05:14:00 66° E 05:18:17 10° NNE
Ariane Rocket 4.4 05:11:16 10° NNE 05:16:02 39° E 05:20:46 10° SSE
Delta 198 4.3 05:19:00 32° SSE 05:19:00 32° SSE 05:21:47 10° ESE
DELTA 2 R/B (1) 4.3 05:18:45 36° NNW 05:18:54 36° NNW 05:24:00 10° NE
H-2A R/B 3.1 05:20:50 17° ESE 05:20:50 17° ESE 05:21:22 10° ESE
Cosmos 2344 3.8 05:21:17 10° SSW 05:29:03 74° ESE 05:37:04 10° NNE
Cosmos 2151 2.8 05:29:47 61° NW 05:30:20 70° W 05:34:34 10° S
Gbstr 26 Del rocket 3.9 05:43:30 35° W 05:45:04 45° NW 05:50:56 10° NNE
Thor Agena Rocket 4.2 05:42:20 10° SSW 05:47:05 35° W 05:48:32 30° WNW
Cosmos 1464 Rocket 4.0 05:41:19 10° SSW 05:47:33 62° W 05:53:46 10° N
Cosmos 1184 Rocket 4.1 05:44:32 10° N 05:47:41 42° E 05:50:51 10° SSE
Meteor 1-11 4.3 05:43:07 10° NNW 05:48:48 58° W 05:54:25 10° S
Cosmos 773 Rocket 4.0 05:45:20 17° NNW 05:49:24 63° WSW 05:54:37 10° S
Cosmos 2263 Rocket 2.1 05:44:31 10° SSW 05:50:11 84° WNW 05:55:54 10° NNE
SL-14 R/B 4.2 05:56:31 28° W 05:56:31 28° W 05:59:45 10° SSW
NOSS 3-1 (A) 4.1 05:48:36 10° NNW 05:56:28 81° WSW 06:04:59 10° SSE
Cosmos 389 Rocket 2.5 05:53:40 10° S 05:57:20 89° E 06:01:01 10° N
Cosmos 1340 Rocket 3.3 05:57:16 26° NW 05:58:51 38° W 06:02:33 10° SSW
Coronas F rocket 2.8 05:57:48 10° NNE 06:00:00 32° E 06:02:12 10° SSE
Cosmos 2112 Rocket 4.3 05:58:27 10° NNW 06:03:47 72° ENE 06:09:07 10° SSE
ATLAS 3B CENTAUR R/B 3.4 05:59:45 14° WSW 06:04:22 64° SSE 06:18:53 10° E
Cosmos 1603 3.9 05:59:36 12° NNW 06:04:35 51° WSW 06:10:03 10° S
ATLAS 2AS CENTAUR R/B 4.3 05:57:38 10° NNW 06:04:48 35° NE 06:11:28 10° ESE
COSMO-SKYMED 1 2.9 06:02:01 10° S 06:06:08 44° W 06:10:18 10° NNW
Cosmos 2298 Rocket 4.1 06:02:06 10° SSW 06:07:24 83° ESE 06:12:42 10° NNE
CZ-3 R/B 4.4 06:02:35 12° W 06:09:19 15° WSW 06:15:05 10° SSW
Cosmos 1908 3.1 06:06:12 10° SSW 06:09:59 68° W 06:13:48 10° N
ERBS 4.0 06:09:58 17° WSW 06:10:19 18° WSW 06:12:41 10° SSW
CSL-04 Rocket 3.6 06:07:28 10° N 06:12:41 64° WNW 06:17:53 10° SSW
Milstar 3 Cent rocket 3.2 06:03:12 10° WSW 06:12:59 61° S 06:18:20 10° E
CZ-2C R/B 2.9 06:09:52 10° NNE 06:14:23 60° E 06:18:56 10° S
Cosmos 1805 Rocket 3.7 06:10:19 10° NNW 06:14:33 49° W 06:18:45 10° SSW
OAO 2 Rocket 3.8 06:13:13 17° W 06:16:41 47° SSW 06:21:23 10° SE
Cosmos 2058 4.0 06:14:29 15° NW 06:16:47 23° W 06:20:06 10° SW
GPS 2-05 Rocket1 3.0 06:15:05 20° NW 06:17:05 54° NNE 06:20:18 10° E
APEX 3.7 06:14:42 10° SW 06:18:27 33° WNW 06:21:31 10° N
Cosmos 1300 4.3 06:18:29 10° SSE 06:22:03 39° E 06:25:38 10° NNE
ASTRO E2 3.0 06:18:16 10° WSW 06:22:14 65° SSE 06:26:14 10° E
ATLAS 2A CENTAUR R/B 2.5 06:24:16 11° W 06:27:48 36° SSW 06:29:37 10° ESE
Sich 1 3.1 06:24:23 10° NNW 06:28:35 54° W 06:32:45 10° S
Cosmos 2228 Rocket 3.1 06:26:19 10° SSW 06:30:40 55° W 06:35:00 10° N
Cosmos 1328 Rocket 3.6 06:29:58 10° SSW 06:34:10 52° W 06:38:26 10° N
Cosmos 292 Rocket 4.5 06:30:07 10° NW 06:34:25 33° W 06:38:42 10° SSW
OAO 3 Copernicus 4.4 06:29:49 10° W 06:34:50 66° NNW 06:39:53 10° ENE
Cosmos 1151 Rocket 3.3 06:32:21 10° S 06:36:36 72° E 06:40:51 10° N
Cosmos 1356 Rocket 4.4 06:33:45 10° NW 06:37:14 26° W 06:40:45 10° SSW
Cosmos 1633 Rocket 3.3 06:34:02 10° NNW 06:38:12 48° W 06:42:21 10° SSW
Cosmos 1626 3.2 06:37:04 10° NW 06:40:08 24° W 06:43:11 10° SW
SMAP 3.0 06:36:38 10° N 06:41:17 77° WNW 06:45:55 10° SSW
Cosmos 1634 Rocket 4.0 06:36:48 10° S 06:43:05 82° W 06:49:23 10° N
Helios 1B rocket 3.6 06:39:38 10° SSE 06:43:32 45° ENE 06:47:27 10° N
Iridium 4 Rocket 4.1 06:39:18 10° N 06:43:45 56° E 06:48:35 10° SSE
